This demonstration page uses our WeatherBlox Daily Observations layout. Learn more.

Left ArrowRight Arrow

39.92423, -83.80882

Hourly Observations for June 20, 2022

Temp ( °F °C ) Dew Point ( °F °C ) Humidity (%) Winds ( mph kmh ) Pressure ( in mb ) Visibility ( mi km ) Precip ( " mm )
12:56 am 00:56 Clear 58 14.4 54 12.2 87 87 Calm 30.19 1022 10 16 0.00 0.00
1:56 am 01:56 Clear 57 13.9 55 12.8 93 93 Calm 30.20 1023 10 16 0.00 0.00
2:56 am 02:56 Clear 57 13.9 55 12.8 93 93 Calm 30.19 1023 10 16 0.00 0.00
3:56 am 03:56 Clear 54 12.2 54 12.2 100 100 Calm 30.21 1023 10 16 0.00 0.00
4:56 am 04:56 Clear 56 13.3 56 13.3 100 100 Calm 30.21 1023 10 16 0.00 0.00
5:56 am 05:56 Clear 56 13.3 55 12.8 97 97 Calm 30.23 1024 10 16 0.00 0.00
6:56 am 06:56 Sunny 55 13 N/A N/A S 3 6 30.24 1024 10 16 0.00 0.00
7:56 am 07:56 Sunny 60 15.6 56 13.3 86 86 Calm 30.26 1025 10 16 0.00 0.00
8:56 am 08:56 Sunny 65 18.3 54 12.2 68 68 SW 5 7 30.26 1025 10 16 0.00 0.00
9:56 am 09:56 Sunny 68 20 53 11.7 59 59 SW 8 13 30.27 1025 10 16 0.00 0.00
10:56 am 10:56 Sunny 70 21.1 54 12.2 57 57 SW 8 13 30.26 1025 10 16 0.00 0.00
11:56 am 11:56 Sunny 74 23.3 54 12.2 50 50 SW 9 15 30.27 1025 10 16 0.00 0.00
12:56 pm 12:56 Sunny 76 24.4 52 11.1 43 43 SSW 10 17 30.25 1024 10 16 0.00 0.00
1:56 pm 13:56 Sunny 80 26.7 54 12.2 41 41 SSW 6 9 30.24 1024 10 16 0.00 0.00
2:56 pm 14:56 Sunny 80 26.7 52 11.1 38 38 SSW 12 19 30.22 1023 10 16 0.00 0.00
3:56 pm 15:56 Sunny 80 26.7 54 12.2 41 41 SSW 7 11 30.21 1023 10 16 0.00 0.00
4:56 pm 16:56 Sunny 82 27.8 50 10 33 33 SW 9 15 30.19 1022 10 16 0.00 0.00
5:56 pm 17:56 Sunny 82 27.8 50 10 33 33 WSW 10 17 30.18 1022 10 16 0.00 0.00
6:56 pm 18:56 Sunny 80 26.7 51 10.6 37 37 WSW 9 15 30.16 1022 10 16 0.00 0.00
7:56 pm 19:56 Sunny 78 25.6 49 9.4 36 36 WSW 6 9 30.15 1021 10 16 0.00 0.00
8:56 pm 20:56 Sunny 74 23.3 51 10.6 45 45 SSW 3 6 30.15 1021 10 16 0.00 0.00
9:56 pm 21:56 Clear 70 21.1 53 11.7 55 55 S 3 6 30.15 1021 10 16 0.02 0.51
10:56 pm 22:56 Clear 66 18.9 55 12.8 68 68 SSE 5 7 30.16 1021 10 16 0.00 0.00
11:56 pm 23:56 Clear 69 20.6 56 13.3 63 63 S 7 11 30.15 1021 10 16 0.00 0.00

Powered by AerisWeather